Regional Weather Roundup
Issued by NWS Boston, MA

Home | Current Version | Previous Version | Text Only | Print | Product List | Glossary On
Versions: 1 2 3 4 5 6 7 8 9 10 11 12 13 14 15 16 17 18 19 20 21 22 23 24 25 26 27 28 29 30 31 32 33 34 35 36 37 38 39 40 41 42 43 44 45 46 47 48 49 50
000
ASUS41 KBOX 252310
RWRBOX

REGIONAL WEATHER ROUNDUP
NATIONAL WEATHER SERVICE TAUNTON MA
700 PM EDT FRI JUL 25 2014

NOTE:  "FAIR" INDICATES FEW OR NO CLOUDS BELOW 12,000 FEET WITH NO
SIGNIFICANT WEATHER AND/OR OBSTRUCTIONS TO VISIBILITY.  THE FOLLOWING
OBSERVATION LOCATIONS DO NOT REPORT PRESENT WEATHER...PROVINCETOWN...
SMITHFIELD...BLOCK ISLAND...KEENE...AND OXFORD.

MAZALL-260000-
EASTERN MASSACHUSETTS

CITY           SKY/WX    TMP DP  RH WIND       PRES   REMARKS
BOSTON         PTSUNNY   80  54  40 W9        29.92F
BEVERLY        SUNNY     78  56  46 W3        29.92S
LAWRENCE       SUNNY     78  57  48 W7        29.94S
BEDFORD        SUNNY     75  61  61 SW5       29.92S
BLUE HILL        N/A     75  56  51 W8        29.95S
NORWOOD        SUNNY     78  55  44 W6        29.93S
MARSHFIELD     SUNNY     73  57  56 S7        29.95F
PLYMOUTH       SUNNY     73  56  54 S5        29.95S
TAUNTON        SUNNY     75  62  64 S7        29.94S
NEW BEDFORD    SUNNY     73  58  59 S8        29.95S
$$

MAZALL-260000-
CAPE COD AND THE ISLANDS

CITY           SKY/WX    TMP DP  RH WIND       PRES   REMARKS
FALMOUTH       SUNNY     72  61  68 S8        29.96F
HYANNIS        SUNNY     73  60  63 SW9       29.95F
CHATHAM        SUNNY     70  61  73 SW5       29.97S
PROVINCETOWN   SUNNY     72  54  53 S9        29.95F
NANTUCKET      SUNNY     68  62  81 SW8       29.97S
MARTHAS VNYRD  SUNNY     69  62  78 SW7       29.97S
$$

MAZALL-260000-
CENTRAL AND WESTERN MASSACHUSETTS

CITY           SKY/WX    TMP DP  RH WIND       PRES   REMARKS
WORCESTER      SUNNY     74  57  55 W6        29.98F
FITCHBURG      SUNNY     78  57  48 SW5       29.95S
ORANGE         SUNNY     76  58  53 SW3       29.95S
SPRINGFIELD    SUNNY     79  58  48 W7        29.94S
WESTFIELD      SUNNY     79  56  45 W6        29.95S
NORTH ADAMS    MOSUNNY   74  60  61 CALM      29.96S
PITTSFIELD     SUNNY     73  55  53 W3        29.98R
$$

RIZALL-260000-
RHODE ISLAND

CITY           SKY/WX    TMP DP  RH WIND       PRES   REMARKS
PROVIDENCE     MOSUNNY   79  55  43 W7        29.95S
NEWPORT        SUNNY     72  56  57 S7        29.96S
BLOCK ISLAND   SUNNY     72  57  60 SW9       29.98S
SMITHFIELD     SUNNY     73  61  64 CALM      29.98S
WESTERLY       SUNNY     75  60  59 S8        29.98R
$$

CTZALL-260000-
CONNECTICUT

CITY           SKY/WX    TMP DP  RH WIND       PRES   REMARKS
BRADLEY INTL   SUNNY     80  56  43 NW5       29.94S
HARTFORD       SUNNY     80  52  37 W6        29.95R
BRIDGEPORT     SUNNY     78  59  51 SW10      29.97R
DANBURY        SUNNY     75  57  53 SW6       29.99S
GROTON         SUNNY     74  57  55 W7        29.96R
NEW HAVEN      SUNNY     78  60  53 SW5       29.97R
CHESTER        FAIR      73  61  64 SW3       29.98S
MERIDEN        SUNNY     77  60  55 SW3       29.96R
WILLIMANTIC    SUNNY     79  57  46 W3        29.96S
OXFORD         SUNNY     75  55  50 CALM      30.01S
$$

MEZ002-015-021-024-NHZ003-005-008-011-012-014-VTZ005-008-260000-
NORTHERN NEW ENGLAND

CITY           SKY/WX    TMP DP  RH WIND       PRES   REMARKS
PORTLAND ME    SUNNY     77  60  55 NW6       29.89R
BANGOR ME      MOSUNNY   77  57  50 W5        29.84S
CONCORD NH     SUNNY     76  56  49 W7        29.93R
MANCHESTER NH  SUNNY     79  56  45 SW5       29.91S
NASHUA NH      SUNNY     79  57  46 CALM      29.94S
PORTSMOUTH NH  SUNNY     77  60  56 SW5       29.91R
JAFFREY NH     SUNNY     74  55  51 W5        29.98S
KEENE NH       SUNNY     75  54  46 CALM      29.95S
BURLINGTON VT  MOSUNNY   79  53  40 W6        29.90R
MT. WASHINGTON FOG       46  46 100 W36         N/A  VSB 1/16
$$

NYZ052-076-260000-
EASTERN NEW YORK

CITY           SKY/WX    TMP DP  RH WIND       PRES   REMARKS
ALBANY         MOSUNNY   78  57  48 W6        29.94S
NEW YORK CITY  MOSUNNY   79  58  48 S10       29.96S
$$

ANZALL-260000-
MARINE OBSERVATIONS

STATION/POSITION TIME  TEMP    WIND        PRES    VSBY  WAVE
                       AIR SEA DIR/SP/G                  HT/PER
                 (UTC) (F)     (DEG/KT/KT) (MB)    (MI)  (FT/S)
BOSTON BUOY      NOT AVBL
BUZZARDS BAY     NOT AVBL
NANTUCKET SOUND  NOT AVBL
MASS BAY-STELLWA NOT AVBL
ISLE OF SHOALS   NOT AVBL
S OF BLOCK IS    NOT AVBL
$$

......................KEY.........................
  SKY/WX - SKY CONDITION/PRESENT WEATHER
  TMP    - TEMPERATURE IN FAHRENHEIT
  DWPT   - DEWPOINT IN FAHRENHEIT
  RH     - RELATIVE HUMIDITY IN PERCENT
  WIND   - DIRECTION AND SPEED IN MPH
  PRES   - MEAN SEA LEVEL PRESSURE IN INCHES OF HG
  WCI    - WIND CHILL INDEX
  VSB    - VISIBILITY IN MILES
  HX     - HEAT INDEX
  TC     - TEMPERATURE IN CELSIUS
  VRB    - VARIABLE WIND DIRECTION
  N/A    - NOT AVAILABLE


USA.gov is the U.S. government's official web portal to all federal, state and local government web resources and services.